Regional Weather Roundup
Issued by NWS Albany, NY

Home | Current Version | Previous Version | Text Only | Print | Product List | Glossary On
Versions: 1 2 3 4 5 6 7 8 9 10 11 12 13 14 15 16 17 18 19 20 21 22 23 24 25 26 27 28 29 30 31 32 33 34 35 36 37 38 39 40 41 42 43 44 45 46 47 48 49 50
000
ASUS41 KALY 171110
RWRALY

NEW YORK STATE HOURLY WEATHER ROUNDUP
NATIONAL WEATHER SERVICE ALBANY NY
700 AM EDT WED SEP 17 2014

NOTE: "FAIR" INDICATES FEW OR NO CLOUDS BELOW 12,000 FEET WITH NO
SIGNIFICANT WEATHER AND/OR NO OBSTRUCTIONS TO VISIBILITY.

NYZ032-033-038>043-046>054-057>066-NYZ062>081-171200-
EAST


CITY           SKY/WX    TMP DP  RH WIND       PRES   REMARKS
ALBANY         PTCLDY    45  42  89 S3        30.05R
GLENS FALLS    FOG       40  38  93 CALM      30.04R VSB 1/4
POUGHKEEPSIE   FOG       46  45  96 CALM      30.06R VSB 3/4
NEWBURGH       CLEAR     46  46 100 CALM      30.07R
MONTGOMERY     CLEAR     41  40  96 SW3       30.07R
WHITE PLAINS   CLEAR     50  47  89 NW8       30.04R
ISLIP          PTCLDY    51  48  89 CALM      30.02R
NEW YORK CITY  PTCLDY    60  50  69 CALM      30.04R
CENTRAL PARK   CLEAR     56  48  74 CALM      30.07R
$$

NYZ005>009-017-018-044>046-055-056-171200-
CENTRAL


CITY           SKY/WX    TMP DP  RH WIND       PRES   REMARKS
FULTON         CLEAR     46  43  89 CALM      30.04S
SYRACUSE       PTCLDY    47  44  90 CALM      30.04S
ROME           CLEAR     43  42  97 CALM      30.06S
ELMIRA         CLOUDY    47  46  97 CALM      30.07R
BINGHAMTON     PTCLDY    44  43  96 W5        30.06R
MONTICELLO     CLOUDY    36  36 100 CALM      30.08R VSB<1/4
$$

NYZ026>034-041>043-171200-
NORTH


CITY           SKY/WX    TMP DP  RH WIND       PRES   REMARKS
WATERTOWN      CLEAR     40  34  79 SE5       30.03R
FORT DRUM      NOT AVBL
MASSENA        CLEAR     43  42  97 SW5       30.01R
SARANAC LAKE   PTCLDY    31  30  96 CALM      30.00R
PLATTSBURGH    CLEAR     47  44  90 VRB3      29.99S
$$

NYZ001>004-010>016-019>021-171200-
WEST


CITY           SKY/WX    TMP DP  RH WIND       PRES   REMARKS
NIAGARA FALLS  PTCLDY    45  42  89 CALM      30.04R
BUFFALO        PTCLDY    48  45  89 S3        30.04S
DUNKIRK        CLEAR     53  48  83 S9        30.05S
JAMESTOWN      CLOUDY    45  43  93 S6        30.07S
WELLSVILLE     CLEAR     44  42  93 CALM      30.08R
ROCHESTER      MOCLDY    47  44  90 SW6       30.05S
PENN YAN       CLEAR     50  46  86 S6        30.06R
$$

             KEY
       WCI = WIND CHILL INDEX
       VSB = VISIBILITY
       HX  = HEAT INDEX
$$



USA.gov is the U.S. government's official web portal to all federal, state and local government web resources and services.